EW7826 Weather Reports


time (UTC)temp
F
wind
direction
speed
knots
gust
knots
rain 1hr
in
rain 24hr
in
rain mn
in
humidity
%
barometer
mb
20260504130817 53 0.0 0.0 0.00 0.00 0.00 81 1006.7
20260504081856 60 0.0 0.0 0.00 0.00 0.00 68 1006.5
20260504080816 61 0.0 0.0 0.00 0.00 0.00 66 1006.3
20260504045815 65 0.0 0.0 0.00 0.00 0.00 60 1006.4
20260504044816 65 0.0 0.0 0.00 0.00 0.00 60 1006.3
20260504043815 65 0.0 0.9 0.00 0.00 0.00 58 1006.3
20260504042815 65 0.0 0.0 0.00 0.00 0.00 54 1006.4
20260504041815 65 0.0 0.0 0.00 0.00 0.00 53 1006.3
20260504040815 66 0.0 0.0 0.00 0.00 0.00 52 1006.2
20260504035815 66 0.0 0.0 0.00 0.00 0.00 52 1006.3
20260504034815 66 0.0 0.0 0.00 0.00 0.00 52 1006.2
20260504033815 67 0.0 0.0 0.00 0.00 0.00 51 1006.3
20260504032816 67 0.0 0.0 0.00 0.00 0.00 50 1006.2
20260504031815 68 0.0 1.7 0.00 0.00 0.00 51 1006.2
20260504030816 67 0.0 0.0 0.00 0.00 0.00 51 1006.2
20260504025815 68 0.0 0.0 0.00 0.00 0.00 52 1006.3
20260504024816 68 0.0 0.0 0.00 0.00 0.00 52 1006.2
20260504023815 68 0.0 0.9 0.00 0.00 0.00 51 1006.3
20260504022815 69 23 0.9 7.0 0.00 0.00 0.00 47 1006.3
20260504021815 70 315 0.9 3.5 0.00 0.00 0.00 46 1006.3
20260504020836 70 23 2.6 8.7 0.00 0.00 0.00 46 1006.4
20260504015817 70 0.0 1.7 0.00 0.00 0.00 47 1006.5
20260504014817 70 0 2.6 8.7 0.00 0.00 0.00 46 1006.6
20260504013857 70 0 4.3 10.4 0.00 0.00 0.00 44 1006.7
20260504012837 71 0 5.2 12.2 0.00 0.00 0.00 44 1006.7
20260504011837 71 0 3.5 9.6 0.00 0.00 0.00 43 1006.8
20260504010817 72 0 4.3 11.3 0.00 0.00 0.00 42 1006.7
20260504005817 72 0 2.6 9.6 0.00 0.00 0.00 42 1006.8
20260504004817 72 338 1.7 7.8 0.00 0.00 0.00 43 1006.9
20260504003817 71 0 1.7 10.4 0.00 0.00 0.00 44 1007.0
20260504002817 71 0 1.7 7.8 0.00 0.00 0.00 46 1007.1
20260504001817 72 315 0.9 7.0 0.00 0.00 0.00 46 1007.2
20260504000817 72 338 0.9 7.0 0.00 0.00 0.00 47 1007.1
20260503235817 71 338 1.7 7.0 0.00 0.00 0.00 49 1007.2
20260503234817 71 0 4.3 9.6 0.00 0.00 0.00 49 1007.3
20260503233817 71 0 2.6 9.6 0.00 0.00 0.00 51 1007.4
20260503232817 70 0 2.6 9.6 0.00 0.00 0.00 51 1007.6
20260503231817 70 0 3.5 8.7 0.00 0.00 0.00 52 1007.7
20260503230817 70 0 4.3 10.4 0.00 0.00 0.00 51 1008.0
20260503225818 70 0 1.7 8.7 0.00 0.00 0.00 51 1008.0
20260503224817 70 23 0.9 5.2 0.00 0.00 0.00 50 1008.1
20260503223817 70 23 0.9 4.3 0.00 0.00 0.00 50 1008.2
20260503222837 70 0 1.7 9.6 0.00 0.00 0.00 49 1008.5
20260503221817 70 0 4.3 11.3 0.00 0.00 0.00 49 1008.5
20260503220817 71 338 5.2 13.0 0.00 0.00 0.00 48 1008.6
20260503215817 70 23 2.6 9.6 0.00 0.00 0.00 48 1008.7
20260503214817 70 0 1.7 8.7 0.00 0.00 0.00 51 1008.7
20260503213817 70 0 1.7 7.8 0.00 0.00 0.00 54 1008.8
20260503212816 69 0 1.7 7.0 0.00 0.00 0.00 55 1008.9
20260503211817 69 0.0 2.6 0.00 0.00 0.00 56 1009.1
20260503210816 69 23 3.5 9.6 0.00 0.00 0.00 55 1009.1
20260503205817 69 315 4.3 10.4 0.00 0.00 0.00 55 1009.2
20260503204817 69 0 0.9 4.3 0.00 0.00 0.00 56 1009.4
20260503203817 69 0.0 0.9 0.00 0.00 0.00 54 1009.5
20260503202837 69 23 1.7 8.7 0.00 0.00 0.00 54 1009.5
20260503201817 69 338 0.9 2.6 0.00 0.00 0.00 59 1009.7
20260503200817 69 0 1.7 7.8 0.00 0.00 0.00 54 1009.8
20260503195816 69 0 0.9 2.6 0.00 0.00 0.00 56 1010.0
20260503194817 69 0.0 1.7 0.00 0.00 0.00 60 1010.2
20260503193817 68 0.0 1.7 0.00 0.00 0.00 61 1010.3
20260503192817 68 0 1.7 7.8 0.00 0.00 0.00 61 1010.5
20260503191838 68 338 0.9 5.2 0.00 0.00 0.00 62 1010.4
20260503190817 67 0 3.5 8.7 0.00 0.00 0.00 63 1010.6
20260503185817 66 0 3.5 7.8 0.00 0.00 0.00 65 1010.7
20260503184836 65 338 0.9 4.3 0.00 0.00 0.00 67 1010.9
20260503183816 64 338 0.9 3.5 0.00 0.00 0.00 68 1010.9
20260503182817 64 23 0.9 2.6 0.00 0.00 0.00 69 1010.9
20260503181817 63 0 3.5 7.8 0.00 0.00 0.00 70 1011.0
20260503180816 63 338 0.9 3.5 0.00 0.00 0.00 71 1011.1
20260503175816 63 0 1.7 4.3 0.00 0.00 0.00 70 1011.0
20260503174817 63 0.0 0.0 0.00 0.00 0.00 72 1011.1
20260503173817 62 0 0.9 4.3 0.00 0.00 0.00 73 1011.2
20260503172817 61 0 6.1 9.6 0.00 0.00 0.00 73 1011.2
20260503171817 61 0 1.7 7.0 0.00 0.00 0.00 73 1011.1
20260503170816 61 0 4.3 9.6 0.00 0.00 0.00 74 1011.2
20260503150816 59 0 2.6 7.0 0.00 0.00 0.00 75 1011.4